Location: Unnamed
(45.3580°N, 90.2245°W)
Time: 09:51:33
(UTC-05:00)

Envisat - Pass Details

Date: 08 March 2021
Orbit: 764 x 766 km, 98.1° (Epoch: 17 April)

Event Time Altitude Azimuth Distance (km) Brightness Sun altitude
Rises 04:14:32 0° 32° (NNE) 3,242 7.0 -23.6°
Reaches altitude 10° 04:18:14 10° 60° (ENE) 2,308 6.5 -23.0°
Maximum altitude 04:20:32 13° 87° (E) 2,098 6.2 -22.6°
Drops below altitude 10° 04:22:51 10° 115° (ESE) 2,300 6.1 -22.2°
Sets 04:26:30 0° 142° (SE) 3,218 6.5 -21.6°
